Terminal Aerodrome Forecast
Issued by NWS Burlington, VT

Home | Current Version | Previous Version | Text Only | Print | Product List | Glossary On
Versions: 1 2 3 4 5 6 7 8 9 10 11 12 13 14 15 16
000
FTUS41 KBTV 262320
TAFBTV
TAF
KBTV 262320Z 2700/2724 36004KT P6SM SCT100 BKN150
     FM271200 33003KT P6SM FEW150 SCT250
     FM271800 33004KT P6SM SKC=

USA.gov is the U.S. government's official web portal to all federal, state and local government web resources and services.